Hourly Weather Chad

Today, 19 June, Saturday

Time Temperature Precipitation Wind Pressure Humidity
00:00 +10°C° 0 mm 2 mps 754 mmHg 74%
01:00 +10°C° 0 mm 2 mps 754 mmHg 76%
02:00 +12°C° 0 mm 2 mps 754 mmHg 73%
03:00 +13°C° 0 mm 2 mps 754 mmHg 70%
04:00 +14°C° 0 mm 2 mps 754 mmHg 67%
05:00 +13°C° 0 mm 3 mps 754 mmHg 69%
06:00 +13°C° 0 mm 3 mps 754 mmHg 70%
07:00 +14°C° 0 mm 3 mps 754 mmHg 71%
08:00 +14°C° 0.1 mm 3 mps 753 mmHg 74%
09:00 +13°C° 0.1 mm 3 mps 753 mmHg 78%
10:00 +13°C° 0 mm 3 mps 753 mmHg 84%
11:00 +14°C° 0.1 mm 3 mps 753 mmHg 83%
12:00 +16°C° 0.1 mm 3 mps 752 mmHg 81%
13:00 +17°C° 0.1 mm 3 mps 752 mmHg 80%
14:00 +19°C° 0.1 mm 4 mps 751 mmHg 77%
15:00 +21°C° 0.1 mm 5 mps 750 mmHg 74%
16:00 +23°C° 0 mm 6 mps 749 mmHg 70%
17:00 +23°C° 0.2 mm 6 mps 749 mmHg 73%
18:00 +22°C° 0.2 mm 6 mps 748 mmHg 75%
19:00 +22°C° 0.2 mm 6 mps 748 mmHg 78%
20:00 +21°C° 0.1 mm 6 mps 748 mmHg 81%
21:00 +20°C° 0.1 mm 5 mps 748 mmHg 83%
22:00 +20°C° 0.1 mm 5 mps 747 mmHg 86%
23:00 +20°C° 0 mm 5 mps 747 mmHg 85%

Tomorrow, 20 June, Sunday

Time Temperature Precipitation Wind Pressure Humidity
00:00 +20°C° 0 mm 5 mps 747 mmHg 85%
01:00 +20°C° 0 mm 5 mps 747 mmHg 84%
02:00 +19°C° 0 mm 5 mps 747 mmHg 85%
03:00 +19°C° 0 mm 5 mps 747 mmHg 85%
04:00 +17°C° 0 mm 5 mps 748 mmHg 85%
05:00 +19°C° 0 mm 5 mps 748 mmHg 83%
06:00 +20°C° 0 mm 5 mps 749 mmHg 80%
07:00 +21°C° 0 mm 5 mps 749 mmHg 78%
08:00 +21°C° 0 mm 6 mps 749 mmHg 67%
09:00 +21°C° 0 mm 6 mps 750 mmHg 57%
10:00 +22°C° 0 mm 7 mps 750 mmHg 46%
11:00 +22°C° 0 mm 7 mps 750 mmHg 43%
12:00 +22°C° 0 mm 7 mps 751 mmHg 40%
13:00 +22°C° 0 mm 6 mps 751 mmHg 36%
14:00 +22°C° 0 mm 6 mps 751 mmHg 38%
15:00 +22°C° 0 mm 6 mps 751 mmHg 40%
16:00 +22°C° 0 mm 6 mps 751 mmHg 41%
17:00 +21°C° 0 mm 5 mps 752 mmHg 46%
18:00 +20°C° 0 mm 4 mps 752 mmHg 51%
19:00 +19°C° 0 mm 3 mps 752 mmHg 56%
20:00 +17°C° 0 mm 3 mps 752 mmHg 59%
21:00 +16°C° 0 mm 2 mps 753 mmHg 61%
22:00 +14°C° 0 mm 2 mps 753 mmHg 64%
23:00 +13°C° 0 mm 1 mps 753 mmHg 65%

Day after tomorrow, 21 June, Monday

Time Temperature Precipitation Wind Pressure Humidity
00:00 +13°C° 0 mm 1 mps 753 mmHg 65%
01:00 +12°C° 0 mm 1 mps 754 mmHg 66%
02:00 +11°C° 0 mm 1 mps 754 mmHg 66%
03:00 +11°C° 0 mm 1 mps 754 mmHg 67%
04:00 +11°C° 0 mm 1 mps 755 mmHg 68%
05:00 +11°C° 0 mm 0 mps 755 mmHg 63%
06:00 +13°C° 0 mm 0 mps 755 mmHg 59%
07:00 +15°C° 0 mm 0 mps 755 mmHg 55%
08:00 +17°C° 0 mm 0 mps 755 mmHg 51%
09:00 +20°C° 0 mm 1 mps 755 mmHg 47%
10:00 +22°C° 0 mm 1 mps 755 mmHg 43%
11:00 +23°C° 0 mm 1 mps 755 mmHg 43%
12:00 +24°C° 0 mm 2 mps 754 mmHg 44%
13:00 +24°C° 0 mm 2 mps 754 mmHg 44%
14:00 +24°C° 0 mm 3 mps 754 mmHg 47%
15:00 +23°C° 0 mm 4 mps 753 mmHg 50%
16:00 +23°C° 0 mm 4 mps 753 mmHg 53%
17:00 +23°C° 0 mm 4 mps 753 mmHg 60%
18:00 +22°C° 0 mm 3 mps 753 mmHg 66%
19:00 +23°C° 0 mm 2 mps 752 mmHg 73%
20:00 +20°C° 0.3 mm 2 mps 752 mmHg 80%
21:00 +19°C° 0.3 mm 2 mps 752 mmHg 87%
22:00 +18°C° 0.3 mm 2 mps 751 mmHg 94%
23:00 +17°C° 0.5 mm 2 mps 751 mmHg 95%

22 June, Tuesday

Time Temperature Precipitation Wind Pressure Humidity
00:00 +17°C° 0.5 mm 2 mps 751 mmHg 95%
01:00 +17°C° 0.5 mm 2 mps 751 mmHg 96%
02:00 +17°C° 0.3 mm 2 mps 751 mmHg 96%
03:00 +17°C° 0.3 mm 2 mps 751 mmHg 96%
04:00 +17°C° 0.3 mm 2 mps 751 mmHg 95%
05:00 +19°C° 0 mm 2 mps 751 mmHg 93%
06:00 +20°C° 0 mm 2 mps 751 mmHg 91%
07:00 +21°C° 0 mm 3 mps 750 mmHg 89%
08:00 +24°C° 0 mm 3 mps 750 mmHg 80%
09:00 +27°C° 0 mm 4 mps 750 mmHg 70%
10:00 +29°C° 0 mm 4 mps 750 mmHg 60%
11:00 +29°C° 0 mm 5 mps 750 mmHg 57%
12:00 +30°C° 0 mm 5 mps 750 mmHg 54%
13:00 +32°C° 0 mm 5 mps 750 mmHg 50%
14:00 +32°C° 0 mm 5 mps 750 mmHg 51%
15:00 +32°C° 0 mm 5 mps 750 mmHg 51%
16:00 +32°C° 0 mm 5 mps 750 mmHg 52%
17:00 +30°C° 0 mm 4 mps 750 mmHg 58%
18:00 +29°C° 0 mm 3 mps 750 mmHg 64%
19:00 +28°C° 0 mm 2 mps 750 mmHg 70%
20:00 +26°C° 0.1 mm 2 mps 750 mmHg 74%
21:00 +23°C° 0.1 mm 2 mps 750 mmHg 78%
22:00 +21°C° 0.1 mm 1 mps 750 mmHg 82%
23:00 +20°C° 0.1 mm 1 mps 750 mmHg 82%

23 June, Wednesday

Time Temperature Precipitation Wind Pressure Humidity
00:00 +20°C° 0.1 mm 1 mps 750 mmHg 81%
01:00 +19°C° 0.1 mm 1 mps 751 mmHg 81%
02:00 +19°C° 0 mm 1 mps 751 mmHg 82%
03:00 +19°C° 0 mm 1 mps 751 mmHg 83%
04:00 +18°C° 0 mm 1 mps 751 mmHg 83%
05:00 +20°C° 0 mm 1 mps 751 mmHg 80%
06:00 +21°C° 0 mm 1 mps 751 mmHg 76%
07:00 +23°C° 0 mm 1 mps 751 mmHg 73%
08:00 +24°C° 0 mm 1 mps 751 mmHg 68%
09:00 +25°C° 0 mm 2 mps 751 mmHg 63%
10:00 +26°C° 0 mm 2 mps 751 mmHg 59%
11:00 +24°C° 0.2 mm 3 mps 751 mmHg 66%
12:00 +22°C° 0.2 mm 3 mps 751 mmHg 72%
13:00 +20°C° 0.2 mm 4 mps 751 mmHg 79%
14:00 +22°C° 0 mm 4 mps 751 mmHg 73%
15:00 +23°C° 0 mm 4 mps 752 mmHg 67%
16:00 +25°C° 0 mm 4 mps 752 mmHg 61%
17:00 +23°C° 0 mm 4 mps 752 mmHg 63%
18:00 +22°C° 0 mm 4 mps 752 mmHg 64%
19:00 +21°C° 0 mm 4 mps 753 mmHg 65%
20:00 +19°C° 0 mm 3 mps 753 mmHg 71%
21:00 +17°C° 0 mm 2 mps 753 mmHg 77%
22:00 +15°C° 0 mm 1 mps 753 mmHg 83%
23:00 +15°C° 0 mm 1 mps 753 mmHg 85%

24 June, Thursday

Time Temperature Precipitation Wind Pressure Humidity
00:00 +14°C° 0 mm 2 mps 753 mmHg 87%
01:00 +13°C° 0 mm 2 mps 754 mmHg 89%
02:00 +13°C° 0 mm 2 mps 754 mmHg 88%
03:00 +13°C° 0 mm 2 mps 754 mmHg 87%
04:00 +12°C° 0 mm 1 mps 754 mmHg 86%
05:00 +14°C° 0 mm 1 mps 754 mmHg 78%
06:00 +16°C° 0 mm 1 mps 754 mmHg 70%
07:00 +19°C° 0 mm 1 mps 754 mmHg 61%
08:00 +19°C° 0 mm 2 mps 754 mmHg 56%
09:00 +21°C° 0 mm 2 mps 754 mmHg 51%
10:00 +23°C° 0 mm 2 mps 754 mmHg 46%
11:00 +24°C° 0 mm 2 mps 754 mmHg 44%
12:00 +25°C° 0 mm 2 mps 753 mmHg 42%
13:00 +25°C° 0 mm 2 mps 753 mmHg 40%
14:00 +26°C° 0 mm 2 mps 753 mmHg 41%
15:00 +26°C° 0 mm 2 mps 753 mmHg 42%
16:00 +26°C° 0 mm 2 mps 753 mmHg 42%
17:00 +26°C° 0 mm 2 mps 753 mmHg 50%
18:00 +25°C° 0 mm 1 mps 752 mmHg 57%
19:00 +24°C° 0 mm 1 mps 752 mmHg 65%
20:00 +23°C° 0 mm 1 mps 752 mmHg 66%
21:00 +20°C° 0 mm 2 mps 752 mmHg 68%
22:00 +18°C° 0 mm 2 mps 751 mmHg 69%
23:00 +18°C° 0 mm 2 mps 751 mmHg 73%
Show more

We Need Your Consent

Meteoprog and our Service Providers may store and access personal data such as cookies, device identifiers or other similar technologies on your device and process such data to personalise content and ads, as well as provide social media features and to analyse the traffic.

  • Store and/or access information on your device

    Cookies, device identifiers or other information can be stored or accessed on your device for the purposes indicated above.

  • Personalised ads and content, ad and content measurement, audience insights, and products development

    Ads and content can be personalised based on a profile. More data can be added to better personalise ads and content. Ad and content performance can be measured. Insights about the audience who saw the ads and content can be derived. Such data can be used to develop or improve user’s experience, systems and software.

By clicking ‘I Agree’ you will allow the use of indicated cookies, device identifiers, web beacons or other similar technologies. Your settings can be changed in the browser on your device.

For certain purposes, legitimate interests may be relied on, rather than consent. You can read more about this in our Privacy and Cookie Policy.